(28804) = 1995 DR11 = 1997 WT30 = 2000 HC81

Discovered at Socorro on 2000-04-28 by LINEAR.

Orbit

Orbit type: Main Belt

Note: WebGL enabled browser required.

epoch2024-03-31.0
epoch JD2460400.5
perihelion date2022-05-02.13589
perihelion JD2459701.63589
argument of perihelion (°)330.30811
ascending node (°)10.76623
inclination (°)3.82449
eccentricity0.2064694
perihelion distance (AU)2.0582206
Tisserand w.r.t. Jupiter3.4
ΔV w.r.t. Earth (km/sec)9.1
semimajor axis (AU)2.5937506
mean anomaly (°)164.89377
mean daily motion (°/day)0.23594540
aphelion distance (AU)3.129
period (years)4.18
P-vector [x]0.94573414
P-vector [y]-0.28344069
P-vector [z]-0.15889714
Q-vector [x]0.32470245
Q-vector [y]0.84309122
Q-vector [z]0.42867879
absolute magnitude14.72
phase slope0.15
uncertainty0
referenceMPEC 2024-F28
observations used1948
oppositions23
arc length (days)12058
first opposition used1991
last opposition used2024
residual rms (arc-secs)0.65
perturbers coarse indicatorM-v
perturbers precise indicator003Ek
first observation date used1991-03-14.0
last observation date used2024-03-18.0
computer nameMPCLINUX
JD of orbit computation2456966.778420
perihelion JD uncertainty (days)4.7601E-05
argument of perihelion uncertainty (°)5.3563E-05
ascending node uncertainty (°)5.2838E-05
inclination uncertainty (°)5.0495E-06
eccentricity uncertainty 4.6798E-08
perihelion distance uncertainty (AU)1.2562E-07
Minimum Orbit Intersection Distances (in AU)
for orbit epoch: 2460400.5, reference: E2024-F28
Mercury1.66418
Venus1.33099
Earth1.05094
Mars0.67603
Jupiter2.26266
Saturn6.12782
Uranus15.3113
Neptune27.25

Observations

1974 total observations over interval: 1991 03 14.34061 – 2024 03 18.123501
These data are available for download (format description).

Date (UT) J2000 RA J2000 Dec Magn Location Ref
1991 03 14.34061 11 37 12.52 +04 21 28.2 20.8 V 691 – Steward Observatory, Kitt Peak-Spacewatch MPS 79073
1991 03 14.36077 11 37 11.41 +04 21 32.9 19.8 V 691 – Steward Observatory, Kitt Peak-Spacewatch MPS 79073
1991 03 14.38111 11 37 10.30 +04 21 38.6 19.8 V 691 – Steward Observatory, Kitt Peak-Spacewatch MPS 79073
1995 02 26.28067 10 56 40.63 +09 51 04.2 19.4 V 691 – Steward Observatory, Kitt Peak-Spacewatch MPC 25009
1995 02 26.30224 10 56 39.41 +09 51 10.0   691 – Steward Observatory, Kitt Peak-Spacewatch MPC 25009
1995 02 26.32426 10 56 38.21 +09 51 16.0   691 – Steward Observatory, Kitt Peak-Spacewatch MPC 25009
1995 03 05.29905 10 50 23.47 +10 23 26.9 19.0 V 691 – Steward Observatory, Kitt Peak-Spacewatch MPC 25009
1995 03 05.32084 10 50 22.29 +10 23 33.1   691 – Steward Observatory, Kitt Peak-Spacewatch MPC 25009
1995 03 05.34264 10 50 21.07 +10 23 38.7   691 – Steward Observatory, Kitt Peak-Spacewatch MPC 25009
1997 11 23.23712 03 34 11.498 +24 09 57.74 16.47 J G91 – Whipple Observatory, Mt. Hopkins--2MASS MPS 80923
1997 11 29.13679 03 28 12.41 +23 53 28.8 17.6   704 – Lincoln Laboratory ETS, New Mexico MPS 306
1997 11 29.17286 03 28 10.28 +23 53 22.5 17.8   704 – Lincoln Laboratory ETS, New Mexico MPS 306
1997 11 29.19166 03 28 09.11 +23 53 20.4 17.7   704 – Lincoln Laboratory ETS, New Mexico MPS 306
1997 11 29.21036 03 28 07.97 +23 53 16.6 17.5   704 – Lincoln Laboratory ETS, New Mexico MPS 306
1997 11 29.23092 03 28 06.76 +23 53 12.4 17.5   704 – Lincoln Laboratory ETS, New Mexico MPS 306
1997 12 04.21754 03 23 32.01 +23 38 33.1 17.4   704 – Lincoln Laboratory ETS, New Mexico MPS 306
1997 12 04.26051 03 23 29.55 +23 38 26.9 18.0   704 – Lincoln Laboratory ETS, New Mexico MPS 306
1997 12 04.27711 03 23 28.73 +23 38 22.6 17.7   704 – Lincoln Laboratory ETS, New Mexico MPS 306
1997 12 04.29463 03 23 27.76 +23 38 21.1 17.7   704 – Lincoln Laboratory ETS, New Mexico MPS 306
1999 02 12.44258 10 12 42.55 +15 10 44.4 18.8 R 699 – Lowell Observatory-LONEOS MPS 59451
1999 02 12.45535 10 12 41.85 +15 10 47.4   699 – Lowell Observatory-LONEOS MPS 59451
1999 02 12.46814 10 12 41.21 +15 10 50.9   699 – Lowell Observatory-LONEOS MPS 59451
2000 04 05.42316 15 07 56.90 -20 16 11.8 18.6 R 699 – Lowell Observatory-LONEOS MPS 15857
2000 04 05.43274 15 07 56.59 -20 16 11.6   699 – Lowell Observatory-LONEOS MPS 15857
2000 04 05.44227 15 07 56.29 -20 16 12.0   699 – Lowell Observatory-LONEOS MPS 15857
2000 04 05.45186 15 07 56.01 -20 16 12.7   699 – Lowell Observatory-LONEOS MPS 15857
2000 04 28.32910 14 50 01.50 -19 40 27.5 18.5   704 – Lincoln Laboratory ETS, New Mexico MPS 14655
2000 04 28.34178 14 50 00.85 -19 40 25.9 18.8   704 – Lincoln Laboratory ETS, New Mexico MPS 14655
2000 04 28.35489 14 49 59.92 -19 40 22.4 18.8   704 – Lincoln Laboratory ETS, New Mexico MPS 14655
2000 04 28.36733 14 49 59.36 -19 40 21.1 18.9   704 – Lincoln Laboratory ETS, New Mexico MPS 14655
2000 04 28.38177 14 49 58.48 -19 40 18.8 18.8   704 – Lincoln Laboratory ETS, New Mexico MPS 14655
2000 04 30.30474 14 48 07.46 -19 35 02.0 18.4 R 699 – Lowell Observatory-LONEOS MPS 14655
2000 04 30.32373 14 48 06.23 -19 34 58.8   699 – Lowell Observatory-LONEOS MPS 14655
2000 04 30.34276 14 48 05.10 -19 34 56.0   699 – Lowell Observatory-LONEOS MPS 14655
2000 04 30.36175 14 48 03.96 -19 34 52.5   699 – Lowell Observatory-LONEOS MPS 14655
2000 05 09.28784 14 39 17.54 -19 07 01.5 18.5   704 – Lincoln Laboratory ETS, New Mexico MPS 14655
2000 05 09.30038 14 39 16.79 -19 06 59.6 18.5   704 – Lincoln Laboratory ETS, New Mexico MPS 14655
2000 05 09.31292 14 39 16.00 -19 06 57.1 18.5   704 – Lincoln Laboratory ETS, New Mexico MPS 14655
2000 05 09.32545 14 39 15.19 -19 06 55.0 19.0   704 – Lincoln Laboratory ETS, New Mexico MPS 14655
2000 05 09.33801 14 39 14.46 -19 06 51.7 18.7   704 – Lincoln Laboratory ETS, New Mexico MPS 14655
2000 05 11.27924 14 37 20.95 -19 00 17.3 18.5   704 – Lincoln Laboratory ETS, New Mexico MPS 14655
2000 05 11.29072 14 37 20.28 -19 00 15.9 18.5   704 – Lincoln Laboratory ETS, New Mexico MPS 14655
2000 05 11.30222 14 37 19.60 -19 00 13.2 18.7   704 – Lincoln Laboratory ETS, New Mexico MPS 14655
2000 05 11.31376 14 37 19.11 -19 00 09.3 18.5   704 – Lincoln Laboratory ETS, New Mexico MPS 14655
2000 05 23.23958 14 26 29.29 -18 18 57.9 18.0 R 699 – Lowell Observatory-LONEOS MPS 15857
2000 05 23.24906 14 26 28.80 -18 18 56.0   699 – Lowell Observatory-LONEOS MPS 15857
2000 05 23.25855 14 26 28.30 -18 18 53.8   699 – Lowell Observatory-LONEOS MPS 15857
2000 05 23.26805 14 26 27.80 -18 18 51.7   699 – Lowell Observatory-LONEOS MPS 15857
2000 05 28.21399 14 22 36.92 -18 02 38.8 18.1 R 699 – Lowell Observatory-LONEOS MPS 15857
2000 05 28.25498 14 22 35.03 -18 02 30.4   699 – Lowell Observatory-LONEOS MPS 15857
2000 05 28.27869 14 22 33.96 -18 02 26.0   699 – Lowell Observatory-LONEOS MPS 15857
2000 05 28.30243 14 22 32.91 -18 02 21.9   699 – Lowell Observatory-LONEOS MPS 15857
2001 07 28.39388 01 49 53.13 +10 22 33.8 18.6 R 699 – Lowell Observatory-LONEOS MPS 32325
2001 07 28.41586 01 49 54.61 +10 22 43.9   699 – Lowell Observatory-LONEOS MPS 32325
2001 07 28.43783 01 49 56.02 +10 22 54.1   699 – Lowell Observatory-LONEOS MPS 32325
2001 07 28.45988 01 49 57.46 +10 23 04.6   699 – Lowell Observatory-LONEOS MPS 32325
2001 08 16.39260 02 07 22.25 +12 29 04.1 18.6   704 – Lincoln Laboratory ETS, New Mexico MPS 32813
2001 08 16.40454 02 07 22.71 +12 29 07.9 18.8   704 – Lincoln Laboratory ETS, New Mexico MPS 32813
2001 08 16.41648 02 07 23.21 +12 29 12.2 18.8   704 – Lincoln Laboratory ETS, New Mexico MPS 32813
2001 08 16.42842 02 07 23.64 +12 29 16.0 18.9   704 – Lincoln Laboratory ETS, New Mexico MPS 32813
2001 08 18.40282 02 08 43.34 +12 40 00.7 18.5   704 – Lincoln Laboratory ETS, New Mexico MPS 33282
2001 08 18.41539 02 08 43.79 +12 40 04.9 18.8   704 – Lincoln Laboratory ETS, New Mexico MPS 33282
2001 08 18.42805 02 08 44.30 +12 40 07.9 19.0   704 – Lincoln Laboratory ETS, New Mexico MPS 33282
2001 08 18.44063 02 08 44.70 +12 40 11.6 19.0   704 – Lincoln Laboratory ETS, New Mexico MPS 33282
2001 08 24.41521 02 12 05.90 +13 09 39.1 18.0   704 – Lincoln Laboratory ETS, New Mexico MPS 33282
2001 08 24.42814 02 12 06.25 +13 09 42.7 18.5   704 – Lincoln Laboratory ETS, New Mexico MPS 33282
2001 08 24.44119 02 12 06.62 +13 09 46.6 18.4   704 – Lincoln Laboratory ETS, New Mexico MPS 33282
2001 08 24.45414 02 12 06.96 +13 09 49.9 18.7   704 – Lincoln Laboratory ETS, New Mexico MPS 33282
2001 08 28.34678 02 13 44.62 +13 26 28.8 18.1 R 699 – Lowell Observatory-LONEOS MPS 35273
2001 08 28.37341 02 13 45.15 +13 26 35.7   699 – Lowell Observatory-LONEOS MPS 35273
2001 08 28.40009 02 13 45.71 +13 26 42.0   699 – Lowell Observatory-LONEOS MPS 35273
2001 08 28.42682 02 13 46.19 +13 26 48.7   699 – Lowell Observatory-LONEOS MPS 35273
2001 09 12.38326 02 15 31.76 +14 11 14.4 17.9 V 333 – Desert Eagle Observatory MPS 37337
2001 09 12.40723 02 15 31.50 +14 11 16.7 18.5 V 333 – Desert Eagle Observatory MPS 37338
2001 09 12.42866 02 15 31.34 +14 11 19.7 18.3 V 333 – Desert Eagle Observatory MPS 37338
2001 09 17.33068 02 14 28.47 +14 18 39.2 17.9   704 – Lincoln Laboratory ETS, New Mexico MPS 37338
2001 09 17.35909 02 14 27.94 +14 18 41.5 18.9   704 – Lincoln Laboratory ETS, New Mexico MPS 37338
2001 09 17.37298 02 14 27.61 +14 18 42.3 19.1   704 – Lincoln Laboratory ETS, New Mexico MPS 37338
2001 09 17.38681 02 14 27.30 +14 18 44.5 18.9   704 – Lincoln Laboratory ETS, New Mexico MPS 37338
2001 09 20.39695 02 13 24.46 +14 21 23.5 17.3   704 – Lincoln Laboratory ETS, New Mexico MPS 37338
2001 09 20.41102 02 13 24.08 +14 21 23.8 18.0   704 – Lincoln Laboratory ETS, New Mexico MPS 37338
2001 09 20.42510 02 13 23.73 +14 21 23.9 17.6   704 – Lincoln Laboratory ETS, New Mexico MPS 37338
2001 09 20.43917 02 13 23.36 +14 21 25.0 18.4   704 – Lincoln Laboratory ETS, New Mexico MPS 37338
2001 09 20.45324 02 13 22.96 +14 21 25.6 18.2   704 – Lincoln Laboratory ETS, New Mexico MPS 37338
2001 09 21.32363 02 13 01.76 +14 21 55.2 17.2 R 699 – Lowell Observatory-LONEOS MPS 37338
2001 09 21.34705 02 13 01.13 +14 21 55.9   699 – Lowell Observatory-LONEOS MPS 37338
